Location: Unspecified
(42.1900°N, 71.3291°W)
Time: 07:22:14
(UTC-04:00)

CZ-3 Stage 3 - Visible Passes

Search period start: 29 May 2017 00:00
Search period end: 08 June 2017 00:00
Orbit: 407 x 34791 km, 30.8° (Epoch: 28 May)

Date Brightness Start Highest point End Pass type
(mag) Time Alt. Az. Time Alt. Az. Time Alt. Az.
29 May 6.8 13:50:13 10° S 20:25:36 29° ESE 22:39:41 10° SE visible
30 May 9.8 01:30:26 10° WNW 02:11:31 13° WNW 03:07:55 10° WNW visible
30 May 9.3 20:58:15 10° W 22:32:25 55° WSW 04:24:24 10° WSW visible
31 May 8.1 17:14:43 10° WSW 20:31:39 59° SE 02:24:01 10° S visible
01 Jun 6.7 13:40:46 10° S 20:15:09 28° ESE 22:24:41 12° SE visible
02 Jun 9.9 01:21:53 10° WNW 02:00:45 12° WNW 02:53:18 10° WNW visible
02 Jun 9.3 20:48:52 10° W 22:21:26 54° WSW 04:10:18 10° WSW daylight
03 Jun 8.1 17:05:23 10° WSW 17:35:47 71° SSE 01:39:36 26° SSW visible
04 Jun 6.7 13:31:18 10° S 20:04:40 28° ESE 22:10:07 13° SE visible
05 Jun 9.9 01:13:31 10° WNW 01:49:58 12° WNW 02:38:26 10° WNW visible
05 Jun 9.4 20:39:27 10° W 22:10:25 54° WSW 03:56:09 10° WSW daylight
06 Jun 8.0 16:56:02 10° WSW 17:25:51 71° SSE 01:27:31 26° SSW visible
07 Jun 6.7 13:21:49 10° S 19:54:08 28° ESE 21:58:50 13° SE visible
